STARLINK-34465

Satellite information

Favourite Embed

Satellite Type and Status

PAYLOADIN ORBIT

Key statistics

Satellite STARLINK-34465 at a glance.

Uptime

30

Days in orbit

Revolutions

≈ 15.4

Per day

Orbit

LEO

Low Earth Orbit

Inclination

53.2

Latest

Satellite identification and parameters

Extended collection of information and parameters for STARLINK-34465.

Object identification

Identified? True

Debris? False

Object name: STARLINK-34465

International designator: 2025-130A

Object number (NORAD): 64438

Object ID (CCSDS): 64438

Country: UNITED STATES OF AMERICA (US)

Current information (Y/N): Y

RCS size: LARGE

Orbital parameters

Period: 93.53 minutes

Inclination: 53.1601 deg

SMA: 6825.376 km

Apoapsis: 448.074 km

Periapsis: 446.407 km

RAAN: 105.9257 deg

Eccentricy: 0.0001221

Argument of periapsis: 93.3142 deg

Mean anomaly: 182.3748 deg

Mean motion: 15.39617737 rev/day

Mean motion (dot): -0.00002854 rev/day2

B* drag term: -0.000061397 1/REarth

Two-line elements (TLE)

Creation date: July 18, 2025, 2:44 a.m.

Reference frame: TEME

Reference center: EARTH

Epoch: July 17, 2025, 10 p.m. UTC

TLE line 0: 0 STARLINK-34465

TLE line 1: 1 64438U 25130A 25198.91667824 -.00002854 00000-0 -61397-4 0 9995

TLE line 2: 2 64438 53.1601 105.9257 0001221 93.3142 182.3748 15.39617737 5973

Live tracking on map

Real-time ground track for satellite STARLINK-34465.

In-orbit conjunctions

There are no conjunctions computed for STARLINK-34465, at the moment. Check back to stay up to date, as we update our databases every day.

Go to all conjunctions

Associated space launch

A batch of 28 satellites for the Starlink mega-constellation - SpaceX's project for space-based Internet communication system.

STARLINK-34465 was lifted into orbit during the mission ‘Falcon 9 Block 5 | Starlink Group 10-18’, on board a Falcon 9 space rocket.

The launch took place on June 18, 2025, 5:55 a.m. from Space Launch Complex 40.

For more information about the launch, click the button.

Launch to space Falcon 9 Block 5 | Starlink Group 10-18
Falcon 9 Block 5 | Starlink Group 10-18

Agency: SpaceX

Status: Launch Successful

Launch date: June 18, 2025, 5:55 a.m. UTC

Rocket: Falcon 9

Launch pad: Space Launch Complex 40

Location: Cape Canaveral SFS, FL, USA

...

Latest news about this satellite

News about space launch
Live coverage: SpaceX to launch 28 Starlink satellites on Falcon 9 rocket from Cape Canaveral

The Starlink 10-18 mission will be SpaceX’s 75th Falcon 9 launch of 2025. It’s targeting liftoff from pad 40 at Cape Canaveral Space Force Station at 1:55 a.m. EDT (0555 UTC).


Newsletter sign-up

Weekly statistics, charts and insights to help you stay on top of the space industry.